Regional Weather Roundup
Issued by NWS

Home | Current Version | Previous Version | Graphics & Text | Print | Product List | Glossary On
Versions: 1 2 3 4 5 6 7 8 9 10 11 12 13 14 15 16 17 18 19 20 21 22 23 24 25 26 27 28 29 30 31 32 33 34 35 36 37 38 39 40 41 42 43 44 45 46 47 48 49 50
000
ASUS45 KABQ 231101
RWRNM
WEATHER ROUNDUP FOR NEW MEXICO
NATIONAL WEATHER SERVICE ALBUQUERQUE NM
500 AM MDT WED JUL 23 2014

NOTE: "FAIR" MEANS FEW OR NO CLOUDS BELOW 12,000 FEET AGL WITH NO
       SIGNIFICANT WEATHER OR OBSTRUCTIONS TO VISION.

      THIS PRODUCT IS RELEASED AS TWO VERSIONS.  ONE VERSION NEAR
      THE TOP OF THE HOUR CONTAINING PRELIMINARY DATA FROM ALBUQUERQUE
      AND OTHER STATIONS.  A FINAL VERSION WITH ADDITIONAL DATA IS
      ISSUED ABOUT 10 MINUTES AFTER THE HOUR.

NMZ501-503-504-510>518-231200-
NORTHWEST PLATEAU/NORTHCENTRAL MOUNTAINS

CITY           SKY/WX    TMP DP  RH WIND       PRES   REMARKS
FARMINGTON     CLEAR     71  53  52 E10       30.33S
LOS ALAMOS     CLEAR     65  43  44 CALM      30.50S
SANTA FE       CLEAR     62  49  62 NE12      30.43R
TAOS           PTCLDY    54  46  76 N3        30.51S
ANGEL FIRE     FAIR      43  41  92 CALM      30.62S

$$
NMZ402-403-502-505>509-231200-
WESTCENTRAL MOUNTAINS/SOUTHWEST MOUNTAINS

CITY           SKY/WX    TMP DP  RH WIND       PRES   REMARKS
GALLUP         CLEAR     58  43  57 CALM      30.41R
GRANTS         CLEAR     58  51  75 NW3       30.45R

$$
NMZ407-409-411-412-231200-
SOUTHERN DESERTS

CITY           SKY/WX    TMP DP  RH WIND       PRES   REMARKS
LORDSBURG      FAIR      70  59  68 SE5       30.21F
DEMING         MOCLDY    69  64  84 CALM      30.23F
LAS CRUCES     PTCLDY    71  61  71 NW7       30.25S
T OR C         PTCLDY    72  58  61 W8        30.27S

$$
NMZ519>523-231200-
CENTRAL VALLEYS/CENTRAL HIGHLANDS

CITY           SKY/WX    TMP DP  RH WIND       PRES   REMARKS
ALBUQUERQUE    CLEAR     70  56  61 N5        30.34F
DOUBLE EAGLE   CLEAR     64  51  62 N6        30.39R
CLINES CORNERS MOCLDY    60  53  77 E7        30.47S
BELEN          FAIR      66  55  66 NE3       30.33S
SOCORRO        CLOUDY    72  51  48 N3        30.30S

$$
NMZ524>526-539-540-231200-
SOUTHCENTRAL MOUNTAINS

CITY           SKY/WX    TMP DP  RH WIND       PRES   REMARKS
RUIDOSO        NOT AVBL

$$
NMZ527>531-231200-
NORTHEAST HIGHLANDS/NORTHEAST PLAINS

CITY           SKY/WX    TMP DP  RH WIND       PRES   REMARKS
LAS VEGAS      CLEAR     58  50  75 CALM      30.48S
RATON          PTCLDY    60  53  77 NE7       30.42F
CLAYTON        CLEAR     70  60  70 W7        30.33S

$$
NMZ532>537-231200-
EASTCENTRAL PLAINS

CITY           SKY/WX    TMP DP  RH WIND       PRES   REMARKS
TUCUMCARI      PTCLDY    73  64  73 CALM      30.28S
CANNON AFB     NOT AVBL
CLOVIS AIRPORT NOT AVBL

$$
NMZ028-029-538-231200-
SOUTHEAST PLAINS

CITY           SKY/WX    TMP DP  RH WIND       PRES   REMARKS
ROSWELL        MOCLDY    75  63  66 NE3       30.23R
ARTESIA        PTCLDY    75  59  57 E6        30.23R
CARLSBAD       PTCLDY    78  57  48 CALM      30.19R


$$



USA.gov is the U.S. government's official web portal to all federal, state and local government web resources and services.